CW3081 Weather Reports


Display with metric or nautical units.
time (UTC)temp
F
wind
direction
speed
MPH
gust
MPH
rain 1hr
in
rain 24hr
in
rain mn
in
humidity
%
barometer
mb
20260503220044 67 256 2.0 3.0 0.00 0.00 0.00 39 1016.5
20260503214547 66 243 1.0 3.0 0.00 0.00 0.00 41 1016.7
20260503213040 66 267 1.0 3.0 0.00 0.00 0.00 43 1017.0
20260503211545 66 250 0.0 3.0 0.00 0.00 0.00 41 1017.1
20260503210044 66 260 2.0 3.0 0.00 0.00 0.00 39 1017.5
20260503204543 66 195 1.0 4.0 0.00 0.00 0.00 42 1017.5
20260503203047 66 285 1.0 3.0 0.00 0.00 0.00 43 1017.8
20260503201546 66 237 0.0 3.0 0.00 0.00 0.00 42 1018.1
20260503200050 66 271 1.0 3.0 0.00 0.00 0.00 42 1018.5
20260503194543 66 257 1.0 3.0 0.00 0.00 0.00 42 1018.7
20260503193054 65 265 2.0 4.0 0.00 0.00 0.00 39 1019.0
20260503191546 66 328 2.0 3.0 0.00 0.00 0.00 38 1019.2
20260503190051 66 199 0.0 3.0 0.00 0.00 0.00 41 1019.4
20260503184556 66 219 1.0 3.0 0.00 0.00 0.00 39 1019.6
20260503183107 65 0 0.0 3.0 0.00 0.00 0.00 38 1019.9
20260503181614 65 0 0.0 3.0 0.00 0.00 0.00 42 1019.9
20260503180047 64 283 0.0 3.0 0.00 0.00 0.00 43 1020.3
20260503174544 63 257 1.0 3.0 0.00 0.00 0.00 43 1020.3
20260503173055 63 153 0.0 3.0 0.00 0.00 0.00 43 1020.4
20260503171542 62 0 1.0 2.0 0.00 0.00 0.00 47 1020.6
20260503081542 39 0 0.0 0.0 0.00 0.00 0.00 92 1020.1
20260503071547 40 0 0.0 0.0 0.00 0.00 0.00 92 1020.0
20260503070106 40 0 0.0 0.0 0.00 0.00 0.00 91 1019.9
20260503060112 42 0 0.0 0.0 0.00 0.00 0.00 91 1020.1
20260503054546 42 0 0.0 0.0 0.00 0.00 0.00 91 1020.1
20260503053044 42 0 0.0 0.0 0.00 0.00 0.00 91 1020.2
20260503051551 42 0 0.0 0.0 0.00 0.00 0.00 91 1020.1
20260503050045 42 0 0.0 0.0 0.00 0.00 0.00 91 1019.9
20260503044543 43 0 0.0 0.0 0.00 0.00 0.00 90 1019.8
20260503043044 43 0 0.0 0.0 0.00 0.00 0.00 90 1019.7
20260503041543 43 0 0.0 0.0 0.00 0.00 0.00 90 1019.6
20260503040043 44 0 0.0 0.0 0.00 0.00 0.00 90 1019.7
20260503034556 44 0 0.0 0.0 0.00 0.00 0.00 90 1019.6
20260503033054 45 0 0.0 0.0 0.00 0.00 0.00 90 1019.6
20260503031547 45 0 0.0 0.0 0.00 0.00 0.00 89 1019.4
20260503030046 46 0 0.0 0.0 0.00 0.00 0.00 89 1019.5
20260503024550 46 0 0.0 0.0 0.00 0.00 0.00 88 1019.4
20260503023055 47 0 0.0 0.0 0.00 0.00 0.00 88 1019.3
20260503021549 47 0 0.0 0.0 0.00 0.00 0.00 88 1019.2
20260503020052 48 0 0.0 0.0 0.00 0.00 0.00 87 1018.9
20260503014549 48 0 0.0 0.0 0.00 0.00 0.00 87 1018.8
20260503013051 49 0 0.0 0.0 0.00 0.00 0.00 86 1018.6
20260503011601 50 0 0.0 0.0 0.00 0.00 0.00 84 1018.6
20260503010107 50 0 0.0 0.0 0.00 0.00 0.00 83 1018.3
20260503004545 51 0 0.0 0.0 0.00 0.00 0.00 81 1018.3
20260503003105 52 0 0.0 0.0 0.00 0.00 0.00 80 1018.0
20260503001540 53 0 0.0 1.0 0.00 0.00 0.00 79 1017.7
20260503000047 53 0 0.0 0.0 0.00 0.00 0.00 78 1017.5
20260502234547 54 338 0.0 1.0 0.00 0.00 0.00 77 1017.4
20260502233103 54 0 0.0 2.0 0.00 0.00 0.00 76 1017.2
20260502231547 55 0 0.0 2.0 0.00 0.00 0.00 76 1017.1
20260502230045 55 293 0.0 3.0 0.00 0.00 0.00 76 1016.8
20260502224552 55 0 0.0 2.0 0.00 0.00 0.00 74 1016.7
20260502223048 55 10 0.0 3.0 0.00 0.00 0.00 72 1016.4
20260502221547 56 0 0.0 2.0 0.00 0.00 0.00 72 1016.2